Regional Weather Roundup
Issued by NWS Kansas City/Pleasant Hill, MO

Home | Current Version | Previous Version | Graphics & Text | Print | Product List | Glossary Off
Versions: 1 2 3 4 5 6 7 8 9 10 11 12 13 14 15 16 17 18 19 20 21 22 23 24 25 26 27 28 29 30 31 32 33 34 35 36 37 38 39 40 41 42 43 44 45 46 47 48 49 50

380
ASUS43 KEAX 131210
RWREAX

WEATHER ROUNDUP FOR EASTERN KANSAS AND NORTHWEST MISSOURI
NATIONAL WEATHER SERVICE KANSAS CITY/PLEASANT HILL MO
600 AM CST WED DEC 13 2017

KSZ040-057-103>105-MOZ028-029-037-043-131300-
...KANSAS CITY METROPOLITAN AREA...

CITY           SKY/WX    TMP DP  RH WIND       PRES   REMARKS
K.C. INTL      CLEAR     36  27  69 SW13      29.69R WCI  27
6HR MIN TEMP:  35; 6HR MAX TEMP:  37;

K.C. DOWNTOWN  CLEAR     39  26  59 SW13      29.70S WCI  31
6HR MIN TEMP:  36; 6HR MAX TEMP:  41;

LEES SUMMIT    CLEAR     37  27  67 W14       29.71S WCI  28
6HR MIN TEMP:  32; 6HR MAX TEMP:  37;

OLATHE - IXD   CLEAR     34  27  75 SW16      29.74R WCI  24
6HR MIN TEMP:  31; 6HR MAX TEMP:  37;

OLATHE - OJC   CLEAR     37  27  67 SW14      29.73R WCI  28
6HR MIN TEMP:  31; 6HR MAX TEMP:  37;

LAWRENCE       CLEAR     36  27  69 SW7       29.74R WCI  30

$$

MOZ001>008-011>017-020>025-030>033-038>040-044>046-053-054-131300-
...NORTHERN AND CENTRAL MISSOURI...

CITY           SKY/WX    TMP DP  RH WIND       PRES   REMARKS
ST. JOSEPH     CLEAR     34  27  75 SW6       29.69S WCI  29
6HR MIN TEMP:  28; 6HR MAX TEMP:  36;

MOSBY          SUNNY     34  28  80 CALM      29.69F
WARRENSBURG    CLEAR     34  27  75 S15       29.70F WCI  24
WHITEMAN AFB   CLEAR     36  25  63 SW18G24   29.66F WCI  26
6HR MIN TEMP:  28; 6HR MAX TEMP:  36;

CLINTON        CLEAR     37  27  65 SW13      29.75F WCI  29
SEDALIA        CLEAR     40  27  59 SW29G36   29.71F WCI  29
6HR MIN TEMP:  33; 6HR MAX TEMP:  41;

WARSAW         NOT AVBL
CHILLICOTHE      N/A     34  26  72 SW9G18    29.66S WCI  27
6HR MIN TEMP:  30; 6HR MAX TEMP:  34;

KIRKSVILLE     CLEAR     32  30  92 SW15      29.60F WCI  22
6HR MIN TEMP:  28; 6HR MAX TEMP:  32;


$$

MOZ041-047>049-056>058-063>065-088>090-097-131300-
...EASTERN AND SOUTHERN MISSOURI...

CITY           SKY/WX    TMP DP  RH WIND       PRES   REMARKS
ST. LOUIS INTL CLEAR     32  18  56 S12       29.78F WCI  23
6HR MIN TEMP:  27; 6HR MAX TEMP:  33;

SPIRIT OF STL  CLEAR     32  18  56 S10G18    29.77F WCI  24
COLUMBIA       CLEAR     33  21  61 S15       29.71F WCI  23
JEFFERSON CITY CLEAR     34  21  59 S7        29.75F WCI  28
ROLLA          CLEAR     32  19  58 S17       29.77F WCI  21
OSAGE BEACH    CLEAR     34  22  61 SW10      29.77F WCI  26
SPRINGFIELD    CLEAR     32  21  64 S14       29.82F WCI  22
BRANSON        PTCLDY    39  23  52 S9        29.88F WCI  33
JOPLIN         CLEAR     41  26  55 S21G28    29.84F WCI  32
WEST PLAINS    CLOUDY    32  15  49 SW9       29.90F WCI  24

$$

IAZ060-094-KSZ022-034>040-054-083-096-NEZ052-066-093-131300-
...KANSAS...SOUTHEAST NEBRASKA AND IOWA...

CITY           SKY/WX    TMP DP  RH WIND       PRES   REMARKS
TOPEKA         CLEAR     36  26  67 SW3       29.74R
6HR MIN TEMP:  36; 6HR MAX TEMP:  41;

MANHATTAN      CLEAR     30  20  66 S3        29.78R
EMPORIA        CLEAR     41  23  48 W10       29.77R WCI  35
CHANUTE        CLEAR     35  27  72 SW13      29.81F WCI  26
WICHITA        CLOUDY    32  24  72 SW3       29.84R
OMAHA          MOCLDY    47  21  35 W12       29.62S
LINCOLN        CLOUDY    51  21  30 NW16      29.71R
FALLS CITY     CLOUDY    40  22  48 W14       29.68R WCI  32
LAMONI         CLOUDY    34  24  67 W18       29.59S WCI  23
DES MOINES     CLOUDY    39  23  52 W17G24    29.51F WCI  30

$$





USA.gov is the U.S. government's official web portal to all federal, state and local government web resources and services.